sampling_time,wmo_synop_id,msc_id,stn_nam,stn_elev,lat,long,stn_typ,date_tm,rpt_typ,result_time,crnt_buoy_lat,crnt_buoy_lat_qa_summary,crnt_buoy_long,crnt_buoy_long_qa_summary,avg_air_temp_pst10mts,avg_air_temp_pst10mts_qa_summary,avg_sea_sfc_temp_pst10mts,avg_sea_sfc_temp_pst10mts_qa_summary,avg_batry_volt_pst10mts,avg_batry_volt_pst10mts_qa_summary,avg_solr_panl_crnt_pst10mts,avg_solr_panl_crnt_pst10mts_qa_summary,avg_wtr_lvl_snsr_volt_pst10mts,avg_wtr_lvl_snsr_volt_pst10mts_qa_summary,avg_wave_hgt_pst20mts,avg_wave_hgt_pst20mts_qa_summary,pk_wave_hgt_pst20mts,pk_wave_hgt_pst20mts_qa_summary,sig_wave_pd_pst20mts,sig_wave_pd_pst20mts_qa_summary,sig_wave_hgt_pst20mts,sig_wave_hgt_pst20mts_qa_summary,avg_max_wave_hgt_pst20mts,avg_max_wave_hgt_pst20mts_qa_summary,avg_max_wave_pd_pst20mts,avg_max_wave_pd_pst20mts_qa_summary,avg_wave_pd_pst20mts,avg_wave_pd_pst20mts_qa_summary,pk_wave_pd_pst20mts,pk_wave_pd_pst20mts_qa_summary,avg_stn_pres_pst10mts,avg_stn_pres_pst10mts_qa_summary,avg_wnd_spd_pst10mts,avg_wnd_spd_pst10mts_qa_summary,avg_wnd_dir_pst10mts,avg_wnd_dir_pst10mts_qa_summary,max_avg_wnd_spd_pst10mts,max_avg_wnd_spd_pst10mts_qa_summary,wnd_snsr_vert_disp,wnd_snsr_vert_disp_qa_summary,pres_tend_char_pst3hrs,pres_tend_char_pst3hrs_data_flag,pres_tend_amt_pst3hrs,pres_tend_amt_pst3hrs_data_flag,avg_mslp_pst10mts,avg_mslp_pst10mts_data_flag,avg_stn_pres_pst10mts_1,avg_stn_pres_pst10mts_1_qa_summary,avg_stn_pres_pst10mts_2,avg_stn_pres_pst10mts_2_qa_summary,avg_wnd_spd_pst10mts_1,avg_wnd_spd_pst10mts_1_qa_summary,avg_wnd_spd_pst10mts_2,avg_wnd_spd_pst10mts_2_qa_summary,avg_wnd_dir_pst10mts_1,avg_wnd_dir_pst10mts_1_qa_summary,avg_wnd_dir_pst10mts_2,avg_wnd_dir_pst10mts_2_qa_summary,max_avg_wnd_spd_pst10mts_1,max_avg_wnd_spd_pst10mts_1_qa_summary,max_avg_wnd_spd_pst10mts_2,max_avg_wnd_spd_pst10mts_2_qa_summary
2021-10-29T00:00:00Z,44490,9300300,WEST BAY OF FUNDY,0,44.66056,-66.3686,18,2021-10-29T00:00:00.000Z,108,2021-10-29T00:04:04.576Z,44.66225,100,-66.36707,100,10.2,100,12.4,100,12.8,100,0.0,100,3.5,100,1.3,100,3.1,100,5.6,100,2.1,100,2.6,100,5.6,100,4.6,100,6.5,100,1013.4,100,44.3,100,31,100,54.7,100,5,100,1,1,1.2,1,1013.4,1,1013.4,100,1013.3,100,44.3,100,42.1,100,31,100,33,100,54.7,100,51.1,100
2021-10-29T00:10:00Z,44490,9300300,WEST BAY OF FUNDY,0,44.66056,-66.3686,18,2021-10-29T00:10:00.000Z,110,2021-10-29T00:14:01.006Z,44.66228,100,-66.36712,100,10.7,100,13.0,100,12.8,100,0.0,100,3.5,100,,-1,,-1,,-1,,-1,,-1,,-1,,-1,,-1,1013.4,100,43.9,100,30,100,50.8,100,5,100,1,1,1.2,1,1013.4,1,1013.4,100,1013.4,100,43.9,100,41.0,100,30,100,32,100,50.8,100,49.7,100
2021-10-29T00:20:00Z,44490,9300300,WEST BAY OF FUNDY,0,44.66056,-66.3686,18,2021-10-29T00:20:00.000Z,110,2021-10-29T00:23:05.717Z,44.662279999999996,100,-66.36707,100,10.0,100,12.4,100,12.8,100,0.0,100,3.5,100,,-1,,-1,,-1,,-1,,-1,,-1,,-1,,-1,1013.4,100,43.2,100,31,100,52.9,100,5,100,1,1,1.1,1,1013.4,1,1013.4,100,1013.4,100,43.2,100,41.0,100,31,100,33,100,52.9,100,49.0,100
2021-10-29T00:30:00Z,44490,9300300,WEST BAY OF FUNDY,0,44.66056,-66.3686,18,2021-10-29T00:30:00.000Z,110,2021-10-29T00:33:09.938Z,44.66225,100,-66.3671,100,10.0,100,12.4,100,12.8,100,0.0,100,3.5,100,,-1,,-1,,-1,,-1,,-1,,-1,,-1,,-1,1013.6,100,42.1,100,32,100,49.3,100,5,100,1,1,1.2,1,1013.6,1,1013.6,100,1013.5,100,42.1,100,39.6,100,32,100,34,100,49.3,100,49.0,100
2021-10-29T00:40:00Z,44490,9300300,WEST BAY OF FUNDY,0,44.66056,-66.3686,18,2021-10-29T00:40:00.000Z,110,2021-10-29T00:44:07.897Z,44.66223,100,-66.36705,100,10.0,100,12.4,100,12.8,100,0.0,100,3.5,100,,-1,,-1,,-1,,-1,,-1,,-1,,-1,,-1,1013.7,100,41.4,100,29,100,49.0,100,5,100,1,1,1.2,1,1013.7,1,1013.7,100,1013.6,100,41.4,100,38.9,100,29,100,31,100,49.0,100,47.5,100
2021-10-29T00:50:00Z,44490,9300300,WEST BAY OF FUNDY,0,44.66056,-66.3686,18,2021-10-29T00:50:00.000Z,110,2021-10-29T00:53:22.245Z,44.66227,100,-66.36707,100,9.9,100,12.4,100,12.8,100,0.0,100,3.5,100,,-1,,-1,,-1,,-1,,-1,,-1,,-1,,-1,1013.7,100,43.2,100,31,100,50.8,100,5,100,1,1,1.2,1,1013.7,1,1013.7,100,1013.7,100,43.2,100,40.7,100,31,100,33,100,50.8,100,51.5,100
2021-10-29T01:00:00Z,44490,9300300,WEST BAY OF FUNDY,0,44.66056,-66.3686,18,2021-10-29T01:00:00.000Z,108,2021-10-29T01:03:16.939Z,44.66225,100,-66.36703,100,10.0,100,12.4,100,12.8,100,0.0,100,3.5,100,1.3,100,3.0,100,5.7,100,2.0,100,2.5,100,5.8,100,4.7,100,6.5,100,1013.8,100,40.0,100,35,100,51.5,100,5,100,2,1,1.2,1,1013.8,1,1013.8,100,1013.8,100,40.0,100,38.2,100,35,100,36,100,51.5,100,47.9,100
2021-10-29T01:10:00Z,44490,9300300,WEST BAY OF FUNDY,0,44.66056,-66.3686,18,2021-10-29T01:10:00.000Z,110,2021-10-29T01:16:24.103Z,44.6622,100,-66.36698,100,9.9,100,12.4,100,12.8,100,0.0,100,3.5,100,,-1,,-1,,-1,,-1,,-1,,-1,,-1,,-1,1013.9,100,41.0,100,33,100,51.1,100,5,100,2,1,1.1,1,1013.9,1,1013.9,100,1013.8,100,41.0,100,39.2,100,33,100,35,100,51.1,100,46.1,100
2021-10-29T01:20:00Z,44490,9300300,WEST BAY OF FUNDY,0,44.66056,-66.3686,18,2021-10-29T01:20:00.000Z,110,2021-10-29T01:23:23.435Z,44.6622,100,-66.367,100,9.8,100,12.4,100,12.8,100,0.0,100,3.5,100,,-1,,-1,,-1,,-1,,-1,,-1,,-1,,-1,1014.0,100,41.4,100,32,100,51.1,100,5,100,3,1,1.1,1,1014.0,1,1014.0,100,1013.9,100,41.4,100,39.2,100,32,100,34,100,51.1,100,49.0,100
2021-10-29T01:30:00Z,44490,9300300,WEST BAY OF FUNDY,0,44.66056,-66.3686,18,2021-10-29T01:30:00.000Z,110,2021-10-29T01:33:21.218Z,44.66218,100,-66.36698,100,9.8,100,12.4,100,12.8,100,0.0,100,3.5,100,,-1,,-1,,-1,,-1,,-1,,-1,,-1,,-1,1014.0,100,41.0,100,35,100,47.9,100,5,100,3,1,1.0,1,1014.0,1,1014.0,100,1013.9,100,41.0,100,39.2,100,35,100,37,100,47.9,100,46.8,100
2021-10-29T01:40:00Z,44490,9300300,WEST BAY OF FUNDY,0,44.66056,-66.3686,18,2021-10-29T01:40:00.000Z,110,2021-10-29T01:43:24.131Z,44.66222,100,-66.36705,100,9.9,100,12.4,100,12.7,100,0.0,100,3.5,100,,-1,,-1,,-1,,-1,,-1,,-1,,-1,,-1,1014.0,100,39.2,100,33,100,47.9,100,5,100,2,1,1.0,1,1014.0,1,1014.0,100,1014.0,100,39.2,100,37.4,100,33,100,35,100,47.9,100,46.8,100
2021-10-29T01:50:00Z,44490,9300300,WEST BAY OF FUNDY,0,44.66056,-66.3686,18,2021-10-29T01:50:00.000Z,110,2021-10-29T01:53:26.252Z,44.66228,100,-66.36712,100,9.9,100,12.4,100,12.7,100,0.0,100,3.5,100,,-1,,-1,,-1,,-1,,-1,,-1,,-1,,-1,1014.0,100,40.3,100,35,100,47.5,100,5,100,2,1,0.9,1,1014.0,1,1014.0,100,1014.0,100,40.3,100,38.5,100,35,100,37,100,47.5,100,46.8,100
2021-10-29T02:00:00Z,44490,9300300,WEST BAY OF FUNDY,0,44.66056,-66.3686,18,2021-10-29T02:00:00.000Z,108,2021-10-29T02:03:26.792Z,44.66232,100,-66.36715,100,9.9,100,12.4,100,12.7,100,0.0,100,3.5,100,1.2,100,3.0,100,5.5,100,1.9,100,2.3,100,5.7,100,4.6,100,6.3,100,1013.9,100,42.8,100,39,100,50.4,100,5,100,1,1,0.8,1,1013.9,1,1013.9,100,1013.9,100,42.8,100,41.0,100,39,100,41,100,50.4,100,49.0,100
2021-10-29T02:10:00Z,44490,9300300,WEST BAY OF FUNDY,0,44.66056,-66.3686,18,2021-10-29T02:10:00.000Z,110,2021-10-29T02:17:38.229Z,44.66232,100,-66.36713,100,9.8,100,12.4,100,12.8,100,0.0,100,3.5,100,,-1,,-1,,-1,,-1,,-1,,-1,,-1,,-1,1013.8,100,43.2,100,33,100,52.2,100,5,100,1,1,0.7,1,1013.8,1,1013.8,100,1013.8,100,43.2,100,41.0,100,33,100,35,100,52.2,100,50.4,100
2021-10-29T02:20:00Z,44490,9300300,WEST BAY OF FUNDY,0,44.66056,-66.3686,18,2021-10-29T02:20:00.000Z,110,2021-10-29T02:25:39.938Z,44.66233,100,-66.36717,100,9.7,100,12.4,100,12.8,100,0.0,100,3.5,100,,-1,,-1,,-1,,-1,,-1,,-1,,-1,,-1,1013.9,100,41.8,100,32,100,49.7,100,5,100,0,1,0.6,1,1013.9,1,1013.9,100,1013.8,100,41.8,100,39.6,100,32,100,34,100,49.7,100,49.0,100
2021-10-29T02:30:00Z,44490,9300300,WEST BAY OF FUNDY,0,44.66056,-66.3686,18,2021-10-29T02:30:00.000Z,110,2021-10-29T02:32:41.162Z,44.6624,100,-66.36725,100,9.8,100,12.4,100,12.8,100,0.0,100,3.5,100,,-1,,-1,,-1,,-1,,-1,,-1,,-1,,-1,1014.0,100,40.0,100,33,100,47.2,100,5,100,1,1,0.7,1,1014.0,1,1014.0,100,1013.9,100,40.0,100,37.8,100,33,100,35,100,47.2,100,46.4,100
2021-10-29T02:40:00Z,44490,9300300,WEST BAY OF FUNDY,0,44.66056,-66.3686,18,2021-10-29T02:40:00.000Z,110,2021-10-29T02:42:43.849Z,44.66248,100,-66.36728000000001,100,9.7,100,12.4,100,12.7,100,0.0,100,3.5,100,,-1,,-1,,-1,,-1,,-1,,-1,,-1,,-1,1014.0,100,41.0,100,35,100,49.0,100,5,100,0,1,0.6,1,1014.0,1,1014.0,100,1013.9,100,41.0,100,38.9,100,35,100,37,100,49.0,100,48.2,100
2021-10-29T02:50:00Z,44490,9300300,WEST BAY OF FUNDY,0,44.66056,-66.3686,18,2021-10-29T02:50:00.000Z,110,2021-10-29T02:53:44.546Z,44.66263,100,-66.36743,100,9.7,100,12.4,100,12.7,100,0.0,100,3.5,100,,-1,,-1,,-1,,-1,,-1,,-1,,-1,,-1,1013.9,100,40.0,100,33,100,46.8,100,5,100,0,1,0.5,1,1013.9,1,1013.9,100,1013.9,100,40.0,100,37.4,100,33,100,35,100,46.8,100,45.4,100
2021-10-29T03:00:00Z,44490,9300300,WEST BAY OF FUNDY,0,44.66056,-66.3686,18,2021-10-29T03:00:00.000Z,108,2021-10-29T03:02:44.987Z,44.66282,100,-66.3675,100,9.7,100,12.4,100,12.7,100,0.0,100,3.5,100,1.4,100,3.2,100,5.8,100,2.1,100,2.6,100,5.8,100,4.9,100,6.7,100,1013.9,100,41.4,100,35,100,49.7,100,5,100,0,1,0.5,1,1013.9,1,1013.9,100,1013.8,100,41.4,100,38.5,100,35,100,37,100,49.7,100,46.8,100
2021-10-29T03:10:00Z,44490,9300300,WEST BAY OF FUNDY,0,44.66056,-66.3686,18,2021-10-29T03:10:00.000Z,110,2021-10-29T03:15:58.040Z,44.6629,100,-66.36755,100,9.6,100,12.5,100,12.7,100,0.0,100,3.5,100,,-1,,-1,,-1,,-1,,-1,,-1,,-1,,-1,1013.9,100,40.3,100,33,100,49.7,100,5,100,1,1,0.4,1,1013.9,1,1013.9,100,1013.8,100,40.3,100,37.8,100,33,100,35,100,49.7,100,47.5,100
2021-10-29T03:20:00Z,44490,9300300,WEST BAY OF FUNDY,0,44.66056,-66.3686,18,2021-10-29T03:20:00.000Z,110,2021-10-29T03:22:48.391Z,44.663,100,-66.36755,100,9.6,100,12.4,100,12.7,100,0.0,100,3.5,100,,-1,,-1,,-1,,-1,,-1,,-1,,-1,,-1,1013.9,100,41.4,100,35,100,49.0,100,5,100,1,1,0.4,1,1013.9,1,1013.9,100,1013.8,100,41.4,100,38.9,100,35,100,37,100,49.0,100,47.2,100
2021-10-29T03:30:00Z,44490,9300300,WEST BAY OF FUNDY,0,44.66056,-66.3686,18,2021-10-29T03:30:00.000Z,110,2021-10-29T03:32:58.130Z,44.6631,100,-66.36758,100,9.5,100,12.4,100,12.7,100,0.0,100,3.5,100,,-1,,-1,,-1,,-1,,-1,,-1,,-1,,-1,1013.8,100,43.2,100,32,100,55.1,100,5,100,0,1,0.2,1,1013.8,1,1013.8,100,1013.7,100,43.2,100,40.3,100,32,100,33,100,55.1,100,50.4,100
2021-10-29T03:40:00Z,44490,9300300,WEST BAY OF FUNDY,0,44.66056,-66.3686,18,2021-10-29T03:40:00.000Z,110,2021-10-29T03:42:59.196Z,44.66325,100,-66.36763,100,9.5,100,12.4,100,12.7,100,0.0,100,3.5,100,,-1,,-1,,-1,,-1,,-1,,-1,,-1,,-1,1013.7,100,44.6,100,35,100,52.2,100,5,100,0,1,0.1,1,1013.7,1,1013.7,100,1013.7,100,44.6,100,41.4,100,35,100,37,100,52.2,100,52.2,100
2021-10-29T03:50:00Z,44490,9300300,WEST BAY OF FUNDY,0,44.66056,-66.3686,18,2021-10-29T03:50:00.000Z,110,2021-10-29T03:53:08.344Z,44.66337,100,-66.36758,100,9.5,100,12.4,100,12.7,100,0.0,100,3.5,100,,-1,,-1,,-1,,-1,,-1,,-1,,-1,,-1,1013.8,100,41.0,100,35,100,48.2,100,5,100,0,1,0.1,1,1013.8,1,1013.8,100,1013.8,100,41.0,100,38.2,100,35,100,36,100,48.2,100,49.0,100
2021-10-29T04:00:00Z,44490,9300300,WEST BAY OF FUNDY,0,44.66056,-66.3686,18,2021-10-29T04:00:00.000Z,108,2021-10-29T04:03:11.848Z,44.66357,100,-66.36753,100,9.5,100,12.4,100,12.7,100,0.0,100,3.5,100,1.3,100,3.0,100,5.7,100,1.9,100,2.3,100,5.7,100,4.8,100,6.3,100,1013.9,100,40.3,100,33,100,50.8,100,5,100,4,1,0.1,1,1013.9,1,1013.9,100,1013.9,100,40.3,100,37.8,100,33,100,34,100,50.8,100,50.8,100
2021-10-29T04:10:00Z,44490,9300300,WEST BAY OF FUNDY,0,44.66056,-66.3686,18,2021-10-29T04:10:00.000Z,110,2021-10-29T04:16:15.268Z,44.66388,100,-66.36738000000001,100,9.5,100,12.4,100,12.7,100,0.0,100,3.5,100,,-1,,-1,,-1,,-1,,-1,,-1,,-1,,-1,1014.0,100,38.5,100,31,100,44.6,100,5,100,3,1,0.1,1,1014.0,1,1014.0,100,1013.9,100,38.5,100,35.6,100,31,100,33,100,44.6,100,43.9,100
2021-10-29T04:20:00Z,44490,9300300,WEST BAY OF FUNDY,0,44.66056,-66.3686,18,2021-10-29T04:20:00.000Z,110,2021-10-29T04:23:05.611Z,44.66428,100,-66.36723,100,9.5,100,12.4,100,12.7,100,0.0,100,3.5,100,,-1,,-1,,-1,,-1,,-1,,-1,,-1,,-1,1014.0,100,39.2,100,30,100,49.3,100,5,100,5,1,0.0,1,1014.0,1,1014.0,100,1013.9,100,39.2,100,37.1,100,30,100,31,100,49.3,100,49.0,100
2021-10-29T04:30:00Z,44490,9300300,WEST BAY OF FUNDY,0,44.66056,-66.3686,18,2021-10-29T04:30:00.000Z,110,2021-10-29T04:33:13.048Z,44.66423,100,-66.36705,100,9.5,100,12.4,100,12.7,100,0.0,100,3.5,100,,-1,,-1,,-1,,-1,,-1,,-1,,-1,,-1,1013.8,100,40.3,100,31,100,49.0,100,5,100,5,1,-0.1,1,1013.8,1,1013.8,100,1013.8,100,40.3,100,37.8,100,31,100,32,100,49.0,100,47.9,100
2021-10-29T04:40:00Z,44490,9300300,WEST BAY OF FUNDY,0,44.66056,-66.3686,18,2021-10-29T04:40:00.000Z,110,2021-10-29T04:43:13.974Z,44.66445,100,-66.3668,100,9.5,100,12.4,100,12.7,100,0.0,100,3.5,100,,-1,,-1,,-1,,-1,,-1,,-1,,-1,,-1,1013.8,100,38.9,100,30,100,46.4,100,5,100,5,1,-0.2,1,1013.8,1,1013.8,100,1013.8,100,38.9,100,36.7,100,30,100,32,100,46.4,100,44.6,100
2021-10-29T04:50:00Z,44490,9300300,WEST BAY OF FUNDY,0,44.66056,-66.3686,18,2021-10-29T04:50:00.000Z,110,2021-10-29T04:53:17.402Z,44.6646,100,-66.36648000000001,100,9.5,100,12.4,100,12.7,100,0.0,100,3.5,100,,-1,,-1,,-1,,-1,,-1,,-1,,-1,,-1,1013.8,100,38.2,100,33,100,47.2,100,5,100,6,1,-0.2,1,1013.8,1,1013.8,100,1013.7,100,38.2,100,34.9,100,33,100,35,100,47.2,100,43.9,100
2021-10-29T05:00:00Z,44490,9300300,WEST BAY OF FUNDY,0,44.66056,-66.3686,18,2021-10-29T05:00:00.000Z,108,2021-10-29T05:03:26.926Z,44.66468,100,-66.36618,100,9.5,100,12.4,100,12.7,100,0.0,100,3.5,100,1.2,100,2.5,100,5.7,100,1.8,100,2.2,100,5.8,100,4.9,100,6.3,100,1013.7,100,40.0,100,29,100,49.3,100,5,100,8,1,-0.2,1,1013.7,1,1013.7,100,1013.6,100,40.0,100,37.8,100,29,100,31,100,49.3,100,49.0,100
2021-10-29T05:10:00Z,44490,9300300,WEST BAY OF FUNDY,0,44.66056,-66.3686,18,2021-10-29T05:10:00.000Z,110,2021-10-29T05:16:32.726Z,44.66483,100,-66.36593,100,9.5,100,12.4,100,12.7,100,0.0,100,3.5,100,,-1,,-1,,-1,,-1,,-1,,-1,,-1,,-1,1013.6,100,38.2,100,34,100,46.1,100,5,100,8,1,-0.2,1,1013.6,1,1013.6,100,1013.6,100,38.2,100,35.3,100,34,100,36,100,46.1,100,43.2,100
2021-10-29T05:20:00Z,44490,9300300,WEST BAY OF FUNDY,0,44.66056,-66.3686,18,2021-10-29T05:20:00.000Z,110,2021-10-29T05:23:28.867Z,44.66487,100,-66.36575,100,9.4,100,12.3,100,12.7,100,0.0,100,3.5,100,,-1,,-1,,-1,,-1,,-1,,-1,,-1,,-1,1013.5,100,37.8,100,25,100,46.4,100,5,100,8,1,-0.3,1,1013.5,1,1013.5,100,1013.5,100,37.8,100,35.3,100,25,100,27,100,46.4,100,45.0,100
2021-10-29T05:30:00Z,44490,9300300,WEST BAY OF FUNDY,0,44.66056,-66.3686,18,2021-10-29T05:30:00.000Z,110,2021-10-29T05:33:34.450Z,44.66492,100,-66.36558000000001,100,9.5,100,12.3,100,12.7,100,0.0,100,3.5,100,,-1,,-1,,-1,,-1,,-1,,-1,,-1,,-1,1013.5,100,38.5,100,25,100,45.7,100,5,100,8,1,-0.5,1,1013.5,1,1013.5,100,1013.4,100,38.5,100,36.7,100,25,100,26,100,45.7,100,45.7,100
2021-10-29T05:40:00Z,44490,9300300,WEST BAY OF FUNDY,0,44.66056,-66.3686,18,2021-10-29T05:40:00.000Z,110,2021-10-29T05:43:33.458Z,44.66492,100,-66.36551999999999,100,9.4,100,12.3,100,12.7,100,0.0,100,3.5,100,,-1,,-1,,-1,,-1,,-1,,-1,,-1,,-1,1013.4,100,39.2,100,21,100,47.5,100,5,100,8,1,-0.6,1,1013.4,1,1013.4,100,1013.4,100,39.2,100,37.4,100,21,100,22,100,47.5,100,47.9,100
2021-10-29T05:50:00Z,44490,9300300,WEST BAY OF FUNDY,0,44.66056,-66.3686,18,2021-10-29T05:50:00.000Z,110,2021-10-29T05:53:36.383Z,44.66492,100,-66.36537,100,9.4,100,12.3,100,12.7,100,0.0,100,3.5,100,,-1,,-1,,-1,,-1,,-1,,-1,,-1,,-1,1013.5,100,38.5,100,25,100,46.1,100,5,100,8,1,-0.5,1,1013.5,1,1013.5,100,1013.4,100,38.5,100,36.0,100,25,100,27,100,46.1,100,46.1,100
2021-10-29T06:00:00Z,44490,9300300,WEST BAY OF FUNDY,0,44.66056,-66.3686,18,2021-10-29T06:00:00.000Z,108,2021-10-29T06:03:32.686Z,44.66492,100,-66.36525,100,9.3,100,12.3,100,12.7,100,0.0,100,3.5,100,1.1,100,2.9,100,5.7,100,1.7,100,2.1,100,5.7,100,4.9,100,6.5,100,1013.5,100,39.2,100,31,100,48.2,100,5,100,8,1,-0.4,1,1013.5,1,1013.5,100,1013.4,100,39.2,100,36.7,100,31,100,33,100,48.2,100,47.2,100
2021-10-29T06:10:00Z,44490,9300300,WEST BAY OF FUNDY,0,44.66056,-66.3686,18,2021-10-29T06:10:00.000Z,110,2021-10-29T06:16:40.084Z,44.66493,100,-66.36528,100,9.3,100,12.3,100,12.7,100,0.0,100,3.5,100,,-1,,-1,,-1,,-1,,-1,,-1,,-1,,-1,1013.5,100,37.1,100,30,100,45.7,100,5,100,8,1,-0.4,1,1013.5,1,1013.5,100,1013.4,100,37.1,100,34.9,100,30,100,31,100,45.7,100,43.9,100
2021-10-29T06:20:00Z,44490,9300300,WEST BAY OF FUNDY,0,44.66056,-66.3686,18,2021-10-29T06:20:00.000Z,110,2021-10-29T06:22:41.127Z,44.66488,100,-66.3652,100,9.2,100,12.3,100,12.7,100,0.0,100,3.5,100,,-1,,-1,,-1,,-1,,-1,,-1,,-1,,-1,1013.4,100,37.4,100,29,100,45.0,100,5,100,8,1,-0.4,1,1013.4,1,1013.4,100,1013.4,100,37.4,100,35.3,100,29,100,30,100,45.0,100,42.1,100
2021-10-29T06:30:00Z,44490,9300300,WEST BAY OF FUNDY,0,44.66056,-66.3686,18,2021-10-29T06:30:00.000Z,110,2021-10-29T06:32:48.235Z,44.6649,100,-66.36515,100,9.3,100,12.3,100,12.7,100,0.0,100,3.5,100,,-1,,-1,,-1,,-1,,-1,,-1,,-1,,-1,1013.4,100,37.4,100,32,100,45.7,100,5,100,8,1,-0.4,1,1013.4,1,1013.4,100,1013.4,100,37.4,100,35.3,100,32,100,34,100,45.7,100,45.4,100
2021-10-29T06:40:00Z,44490,9300300,WEST BAY OF FUNDY,0,44.66056,-66.3686,18,2021-10-29T06:40:00.000Z,110,2021-10-29T06:42:50.977Z,44.6649,100,-66.36502,100,9.4,100,12.3,100,12.7,100,0.0,100,3.5,100,,-1,,-1,,-1,,-1,,-1,,-1,,-1,,-1,1013.2,100,38.2,100,32,100,47.5,100,5,100,8,1,-0.5,1,1013.2,1,1013.2,100,1013.2,100,38.2,100,36.4,100,32,100,34,100,47.5,100,44.6,100
2021-10-29T06:50:00Z,44490,9300300,WEST BAY OF FUNDY,0,44.66056,-66.3686,18,2021-10-29T06:50:00.000Z,110,2021-10-29T06:52:53.627Z,44.66488,100,-66.36502,100,9.2,100,12.3,100,12.7,100,0.0,100,3.5,100,,-1,,-1,,-1,,-1,,-1,,-1,,-1,,-1,1013.2,100,41.0,100,31,100,47.2,100,5,100,8,1,-0.7,1,1013.2,1,1013.2,100,1013.1,100,41.0,100,38.9,100,31,100,33,100,47.2,100,45.7,100
2021-10-29T07:00:00Z,44490,9300300,WEST BAY OF FUNDY,0,44.66056,-66.3686,18,2021-10-29T07:00:00.000Z,108,2021-10-29T07:02:53.814Z,44.6649,100,-66.36488,100,9.3,100,12.3,100,12.7,100,0.0,100,3.5,100,1.1,100,2.5,100,5.8,100,1.7,100,2.0,100,5.9,100,5.0,100,6.5,100,1013.2,100,36.4,100,31,100,46.8,100,5,100,7,1,-0.7,1,1013.2,1,1013.2,100,1013.2,100,36.4,100,33.8,100,31,100,32,100,46.8,100,43.6,100
2021-10-29T07:10:00Z,44490,9300300,WEST BAY OF FUNDY,0,44.66056,-66.3686,18,2021-10-29T07:10:00.000Z,110,2021-10-29T07:16:54.942Z,44.6649,100,-66.36483,100,9.1,100,12.3,100,12.7,100,0.0,100,3.5,100,,-1,,-1,,-1,,-1,,-1,,-1,,-1,,-1,1013.2,100,34.9,100,30,100,42.8,100,5,100,6,1,-0.8,1,1013.2,1,1013.2,100,1013.1,100,34.9,100,33.1,100,30,100,31,100,42.8,100,40.7,100
2021-10-29T07:20:00Z,44490,9300300,WEST BAY OF FUNDY,0,44.66056,-66.3686,18,2021-10-29T07:20:00.000Z,110,2021-10-29T07:27:56.827Z,44.66488,100,-66.36475,100,8.9,100,12.3,100,12.7,100,0.0,100,3.5,100,,-1,,-1,,-1,,-1,,-1,,-1,,-1,,-1,1013.1,100,35.3,100,18,100,41.8,100,5,100,7,1,-0.9,1,1013.1,1,1013.1,100,1013.0,100,35.3,100,34.2,100,18,100,20,100,41.8,100,41.0,100
2021-10-29T07:30:00Z,44490,9300300,WEST BAY OF FUNDY,0,44.66056,-66.3686,18,2021-10-29T07:30:00.000Z,110,2021-10-29T07:32:58.645Z,44.66487,100,-66.36482,100,8.9,100,12.3,100,12.7,100,0.0,100,3.5,100,,-1,,-1,,-1,,-1,,-1,,-1,,-1,,-1,1013.0,100,36.0,100,27,100,44.3,100,5,100,7,1,-0.8,1,1013.0,1,1013.0,100,1013.0,100,36.0,100,34.6,100,27,100,28,100,44.3,100,43.2,100
2021-10-29T07:40:00Z,44490,9300300,WEST BAY OF FUNDY,0,44.66056,-66.3686,18,2021-10-29T07:40:00.000Z,110,2021-10-29T07:43:00.838Z,44.66488,100,-66.36483,100,8.9,100,12.3,100,12.7,100,0.0,100,3.5,100,,-1,,-1,,-1,,-1,,-1,,-1,,-1,,-1,1013.0,100,37.1,100,28,100,45.7,100,5,100,6,1,-0.8,1,1013.0,1,1013.0,100,1013.0,100,37.1,100,35.6,100,28,100,30,100,45.7,100,45.7,100
2021-10-29T07:50:00Z,44490,9300300,WEST BAY OF FUNDY,0,44.66056,-66.3686,18,2021-10-29T07:50:00.000Z,110,2021-10-29T07:53:00.411Z,44.66487,100,-66.36487,100,8.9,100,12.3,100,12.6,100,0.0,100,3.5,100,,-1,,-1,,-1,,-1,,-1,,-1,,-1,,-1,1013.1,100,35.3,100,31,100,44.3,100,5,100,6,1,-0.7,1,1013.1,1,1013.1,100,1013.1,100,35.3,100,33.8,100,31,100,32,100,44.3,100,43.2,100
2021-10-29T08:00:00Z,44490,9300300,WEST BAY OF FUNDY,0,44.66056,-66.3686,18,2021-10-29T08:00:00.000Z,108,2021-10-29T08:03:07.490Z,44.6649,100,-66.36487,100,8.8,100,12.3,100,12.6,100,0.0,100,3.5,100,1.0,100,3.1,100,5.6,100,1.6,100,1.9,100,5.5,100,4.9,100,6.1,100,1013.2,100,36.7,100,28,100,43.6,100,5,100,6,1,-0.5,1,1013.2,1,1013.2,100,1013.1,100,36.7,100,34.9,100,28,100,30,100,43.6,100,41.8,100
2021-10-29T08:10:00Z,44490,9300300,WEST BAY OF FUNDY,0,44.66056,-66.3686,18,2021-10-29T08:10:00.000Z,110,2021-10-29T08:16:15.205Z,44.6649,100,-66.36492,100,8.8,100,12.3,100,12.7,100,0.0,100,3.5,100,,-1,,-1,,-1,,-1,,-1,,-1,,-1,,-1,1013.2,100,36.4,100,28,100,42.1,100,5,100,6,1,-0.4,1,1013.2,1,1013.2,100,1013.2,100,36.4,100,34.6,100,28,100,30,100,42.1,100,41.4,100
2021-10-29T08:20:00Z,44490,9300300,WEST BAY OF FUNDY,0,44.66056,-66.3686,18,2021-10-29T08:20:00.000Z,110,2021-10-29T08:23:13.355Z,44.66485,100,-66.36483,100,8.8,100,12.3,100,12.7,100,0.0,100,3.5,100,,-1,,-1,,-1,,-1,,-1,,-1,,-1,,-1,1013.2,100,34.9,100,30,100,44.6,100,5,100,5,1,-0.3,1,1013.2,1,1013.2,100,1013.2,100,34.9,100,33.5,100,30,100,32,100,44.6,100,43.9,100
2021-10-29T08:30:00Z,44490,9300300,WEST BAY OF FUNDY,0,44.66056,-66.3686,18,2021-10-29T08:30:00.000Z,110,2021-10-29T08:33:13.495Z,44.66482,100,-66.3648,100,8.8,100,12.3,100,12.7,100,0.0,100,3.5,100,,-1,,-1,,-1,,-1,,-1,,-1,,-1,,-1,1013.2,100,35.3,100,30,100,43.9,100,5,100,5,1,-0.3,1,1013.2,1,1013.2,100,1013.2,100,35.3,100,33.8,100,30,100,32,100,43.9,100,43.6,100
2021-10-29T08:40:00Z,44490,9300300,WEST BAY OF FUNDY,0,44.66056,-66.3686,18,2021-10-29T08:40:00.000Z,110,2021-10-29T08:44:20.567Z,44.66478,100,-66.3648,100,8.8,100,12.3,100,12.6,100,0.0,100,3.5,100,,-1,,-1,,-1,,-1,,-1,,-1,,-1,,-1,1013.4,100,33.8,100,27,100,41.8,100,5,100,5,1,-0.1,1,1013.4,1,1013.4,100,1013.3,100,33.8,100,32.4,100,27,100,29,100,41.8,100,41.4,100
2021-10-29T08:50:00Z,44490,9300300,WEST BAY OF FUNDY,0,44.66056,-66.3686,18,2021-10-29T08:50:00.000Z,110,2021-10-29T08:53:16.860Z,44.66475,100,-66.36482,100,8.8,100,12.3,100,12.6,100,0.0,100,3.5,100,,-1,,-1,,-1,,-1,,-1,,-1,,-1,,-1,1013.4,100,34.9,100,28,100,42.8,100,5,100,5,1,-0.1,1,1013.4,1,1013.4,100,1013.4,100,34.9,100,33.8,100,28,100,30,100,42.8,100,41.0,100
2021-10-29T09:00:00Z,44490,9300300,WEST BAY OF FUNDY,0,44.66056,-66.3686,18,2021-10-29T09:00:00.000Z,108,2021-10-29T09:03:18.497Z,44.66467,100,-66.36492,100,8.8,100,12.3,100,12.6,100,0.0,100,3.5,100,1.0,100,2.6,100,5.3,100,1.6,100,2.0,100,5.3,100,4.5,100,5.3,100,1013.5,100,33.8,100,30,100,42.1,100,5,100,5,1,0.0,1,1013.5,1,1013.5,100,1013.4,100,33.8,100,32.8,100,30,100,31,100,42.1,100,40.7,100
2021-10-29T09:10:00Z,44490,9300300,WEST BAY OF FUNDY,0,44.66056,-66.3686,18,2021-10-29T09:10:00.000Z,110,2021-10-29T09:16:20.647Z,44.66465,100,-66.36518000000001,100,8.8,100,12.3,100,12.6,100,0.0,100,3.5,100,,-1,,-1,,-1,,-1,,-1,,-1,,-1,,-1,1013.4,100,34.6,100,33,100,42.1,100,5,100,5,1,-0.1,1,1013.4,1,1013.4,100,1013.4,100,34.6,100,33.1,100,33,100,35,100,42.1,100,41.8,100
2021-10-29T09:20:00Z,44490,9300300,WEST BAY OF FUNDY,0,44.66056,-66.3686,18,2021-10-29T09:20:00.000Z,110,2021-10-29T09:23:33.850Z,44.66455,100,-66.36555,100,8.8,100,12.3,100,12.6,100,0.0,100,3.5,100,,-1,,-1,,-1,,-1,,-1,,-1,,-1,,-1,1013.4,100,33.8,100,33,100,40.3,100,5,100,5,1,0.0,1,1013.4,1,1013.4,100,1013.4,100,33.8,100,32.4,100,33,100,34,100,40.3,100,39.6,100
2021-10-29T09:30:00Z,44490,9300300,WEST BAY OF FUNDY,0,44.66056,-66.3686,18,2021-10-29T09:30:00.000Z,110,2021-10-29T09:33:36.445Z,44.66442,100,-66.36593,100,8.8,100,12.3,100,12.6,100,0.0,100,3.5,100,,-1,,-1,,-1,,-1,,-1,,-1,,-1,,-1,1013.3,100,34.6,100,31,100,41.4,100,5,100,5,1,0.0,1,1013.3,1,1013.3,100,1013.3,100,34.6,100,33.1,100,31,100,33,100,41.4,100,40.7,100
2021-10-29T09:40:00Z,44490,9300300,WEST BAY OF FUNDY,0,44.66056,-66.3686,18,2021-10-29T09:40:00.000Z,110,2021-10-29T09:42:29.939Z,44.66415,100,-66.36645,100,8.8,100,12.3,100,12.6,100,0.0,100,3.5,100,,-1,,-1,,-1,,-1,,-1,,-1,,-1,,-1,1013.4,100,34.2,100,29,100,41.8,100,5,100,3,1,0.2,1,1013.4,1,1013.4,100,1013.4,100,34.2,100,32.4,100,29,100,30,100,41.8,100,40.0,100